Weather History for Sheridan, WY

Change the Weather History Date:

Saturday, May 10, 2014

  Actual Average Record
Temperature  
Mean Temperature 45 °F 51 °F  
Max Temperature 55 °F 65 °F 88 °F (1961)
Min Temperature 35 °F 37 °F 19 °F (1927)
Degree Days  
Heating Degree Days 20 14  
Month to date heating degree days 180 157  
Since 1 July heating degree days 7547 7258  
Cooling Degree Days 0 0  
Month to date cooling degree days 0 0  
Year to date cooling degree days 0 0  
Moisture  
Dew Point 35 °F    
Average Humidity 69    
Maximum Humidity 92    
Minimum Humidity 46    
Precipitation  
Precipitation 0.01 in 0.08 in 1.48 in (2005)
Month to date precipitation 1.03 0.76  
Year to date precipitation 6.11 4.44  
Sea Level Pressure  
Sea Level Pressure 29.86 in    
Wind  
Wind Speed 15 mph (NW)    
Max Wind Speed 29 mph    
Max Gust Speed 34 mph    
Visibility 10 miles    
Events Rain    
T = Trace of Precipitation, MM = Missing Value Source: NWS Daily Summary

Daily Weather History Graph

Daily Weather History Graph

Search for Another Location

Airport:

Trip Planner

Search our weather history database for the weather conditions in past years. The results will help you decide how hot, cold, wet, or windy it might be!

Date:

Astronomy

May. 10, 2014 Rise Set
Actual Time 5:45 AM MDT 8:23 PM MDT
Civil Twilight 5:12 AM MDT 8:57 PM MDT
Nautical Twilight 4:30 AM MDT 9:39 PM MDT
Astronomical Twilight 3:42 AM MDT 10:28 PM MDT
Moon 4:12 PM MDT (5/10) 3:31 AM MDT (5/10)
Length of Visible Light 15h 45m
Length of Day
14h 38m
Waxing Gibbous, 82% of the Moon is Illuminated
May 10
Waxing Gibbous
May 14
Full
May 21
Last Quarter
May 28
New
Jun 5
First Quarter

Hourly Weather History & Observations

Time (MDT) Temp. Windchill Dew Point Humidity Pressure Visibility Wind Dir Wind Speed Gust Speed Precip Events Conditions
12:53 AM 44.1 °F 37.4 °F 37.9 °F 79% 29.74 in 10.0 mi NNW 13.8 mph - N/A   Partly Cloudy
1:53 AM 44.1 °F 38.1 °F 39.0 °F 82% 29.75 in 10.0 mi NNW 11.5 mph - N/A   Overcast
2:53 AM 39.9 °F 35.1 °F 37.9 °F 93% 29.75 in 10.0 mi WSW 6.9 mph - N/A   Mostly Cloudy
3:53 AM 41.0 °F 36.4 °F 37.9 °F 89% 29.74 in 10.0 mi West 6.9 mph - N/A   Overcast
4:53 AM 39.2 °F 35.9 °F 37.4 °F 93% 29.77 in 10.0 mi SSW 4.6 mph - N/A   Overcast
5:53 AM 37.0 °F - 34.0 °F 89% 29.77 in 10.0 mi Calm Calm - N/A   Clear
6:53 AM 42.1 °F 39.2 °F 37.0 °F 82% 29.79 in 10.0 mi WNW 4.6 mph - N/A   Clear
7:53 AM 48.0 °F - 36.0 °F 63% 29.78 in 10.0 mi NW 17.3 mph - N/A   Clear
8:53 AM 50.0 °F - 34.0 °F 54% 29.78 in 10.0 mi NW 20.7 mph - N/A   Clear
9:53 AM 52.0 °F - 35.1 °F 53% 29.77 in 10.0 mi NNW 19.6 mph 31.1 mph N/A   Scattered Clouds
10:53 AM 52.0 °F - 35.1 °F 53% 29.76 in 10.0 mi NNW 19.6 mph 25.3 mph N/A   Overcast
11:53 AM 53.1 °F - 35.1 °F 50% 29.76 in 10.0 mi NNW 21.9 mph - N/A   Scattered Clouds
12:53 PM 53.1 °F - 34.0 °F 48% 29.76 in 10.0 mi NNW 17.3 mph 21.9 mph N/A   Overcast
1:53 PM 53.1 °F - 34.0 °F 48% 29.76 in 10.0 mi NW 17.3 mph 21.9 mph N/A   Overcast
2:53 PM 52.0 °F - 33.1 °F 49% 29.79 in 10.0 mi NW 17.3 mph 24.2 mph N/A   Overcast
3:53 PM 51.1 °F - 35.1 °F 54% 29.81 in 10.0 mi NW 12.7 mph - 0.00 in   Overcast
4:53 PM 48.0 °F - 36.0 °F 63% 29.85 in 10.0 mi NW 21.9 mph - 0.00 in   Overcast
5:53 PM 45.0 °F 36.6 °F 37.9 °F 76% 29.90 in 10.0 mi WNW 21.9 mph 27.6 mph N/A   Overcast
6:53 PM 43.0 °F 34.0 °F 33.1 °F 68% 29.93 in 10.0 mi NW 21.9 mph - N/A   Overcast
7:53 PM 41.0 °F 33.1 °F 33.1 °F 73% 29.98 in 10.0 mi NW 15.0 mph - N/A   Overcast
8:36 PM 39.0 °F 29.6 °F 34.0 °F 82% 29.99 in 10.0 mi NW 18.4 mph - 0.00 in Rain Light Rain
8:53 PM 37.9 °F 28.9 °F 34.0 °F 86% 30.03 in 10.0 mi NNW 16.1 mph - 0.00 in Rain Light Rain
9:41 PM 37.0 °F 29.8 °F 34.0 °F 89% 30.04 in 10.0 mi NW 10.4 mph - 0.01 in   Overcast
9:53 PM 37.9 °F 30.5 °F 34.0 °F 86% 30.06 in 10.0 mi NW 11.5 mph - 0.01 in   Overcast
10:53 PM 37.0 °F 28.9 °F 34.0 °F 89% 30.06 in 10.0 mi NW 12.7 mph - N/A   Overcast
11:46 PM 37.0 °F 30.4 °F 34.0 °F 89% 30.05 in 10.0 mi NNW 9.2 mph - N/A   Overcast
11:53 PM 37.0 °F 28.5 °F 34.0 °F 89% 30.07 in 10.0 mi NNW 13.8 mph 19.6 mph N/A   Overcast